Location: Obersdorf
(47.4079°N, 10.2781°E)
Time: 04:39:25
(UTC+02:00)

COSMOS 2251 DEB - Pass Details

Date: 30 June 2022
Orbit: 490 x 569 km, 73.9° (Epoch: 11 August)

Event Time Altitude Azimuth Distance (km) Brightness Sun altitude
Rises 04:31:38 0° 155° (SSE) 2,768 ? -7.6°
Reaches altitude 10° 04:34:42 10° 131° (SE) 1,866 ? -7.3°
Maximum altitude 04:36:58 14° 97° (E) 1,593 ? -7.0°
Drops below altitude 10° 04:39:12 10° 64° (ENE) 1,853 ? -6.7°
Sets 04:42:13 0° 40° (NE) 2,737 ? -6.4°
